TimeCST,TemperatureF,Dew PointF,Humidity,Sea Level PressureIn,VisibilityMPH,Wind Direction,Wind SpeedMPH,Gust SpeedMPH,PrecipitationIn,Events,Conditions,WindDirDegrees,DateUTC
12:02 AM,19.4,17.6,93,30.22,6.0,NNE,10.4,-,0.00,Snow,Light Snow,20,2013-12-06 06:02:00
12:57 AM,19.0,16.0,88,30.28,9.0,NNE,11.5,-,0.00,Snow,Light Snow,20,2013-12-06 06:57:00
1:38 AM,17.6,15.8,93,30.23,2.5,North,9.2,-,0.00,Snow,Light Snow,10,2013-12-06 07:38:00
1:57 AM,18.0,16.0,92,30.27,2.0,NNE,12.7,-,0.00,Snow,Light Snow,20,2013-12-06 07:57:00
2:05 AM,17.6,15.8,93,30.21,3.0,NNE,9.2,-,0.00,Snow,Light Snow,20,2013-12-06 08:05:00
2:10 AM,17.6,15.8,93,30.21,4.0,NNE,9.2,-,0.00,Snow,Light Snow,20,2013-12-06 08:10:00
2:13 AM,17.6,15.8,93,30.20,4.0,NNE,11.5,-,0.00,Snow,Light Snow,30,2013-12-06 08:13:00
2:16 AM,17.6,15.8,93,30.21,4.0,NNE,12.7,-,0.00,Snow,Light Snow,30,2013-12-06 08:16:00
2:19 AM,17.6,15.8,93,30.21,4.0,NNE,10.4,-,0.00,Snow,Light Snow,20,2013-12-06 08:19:00
2:24 AM,17.6,15.8,93,30.22,4.0,NNE,10.4,-,0.00,Snow,Light Snow,20,2013-12-06 08:24:00
2:57 AM,18.0,15.1,88,30.27,8.0,NNE,13.8,-,0.00,Snow,Light Snow,30,2013-12-06 08:57:00
3:19 AM,17.6,15.8,93,30.24,2.5,North,5.8,-,0.00,Snow,Light Snow,360,2013-12-06 09:19:00
3:27 AM,17.6,15.8,93,30.23,2.0,North,8.1,-,0.00,Snow,Light Snow,10,2013-12-06 09:27:00
3:31 AM,17.6,15.8,93,30.23,1.8,NNE,10.4,-,0.00,Snow,Light Snow,20,2013-12-06 09:31:00
3:51 AM,17.6,15.8,93,30.22,2.0,NNE,8.1,18.4,0.00,Snow,Light Snow,20,2013-12-06 09:51:00
3:57 AM,18.0,15.1,88,30.27,2.0,NNE,9.2,-,0.00,Snow,Light Snow,20,2013-12-06 09:57:00
4:21 AM,17.6,15.8,93,30.22,3.0,NNE,10.4,-,0.00,Snow,Light Snow,20,2013-12-06 10:21:00
4:47 AM,17.6,15.8,93,30.22,4.0,NNE,12.7,-,0.00,Snow,Light Snow,20,2013-12-06 10:47:00
4:57 AM,18.0,15.1,88,30.27,4.0,NNE,13.8,-,0.00,Snow,Light Snow,30,2013-12-06 10:57:00
5:22 AM,17.6,14.0,86,30.23,3.0,NNE,9.2,20.7,0.00,Snow,Light Snow,20,2013-12-06 11:22:00
5:25 AM,17.6,14.0,86,30.24,2.5,NNE,9.2,19.6,0.00,Snow,Light Snow,20,2013-12-06 11:25:00
5:34 AM,17.6,15.8,93,30.24,3.0,NNE,8.1,-,0.00,Snow,Light Snow,20,2013-12-06 11:34:00
5:43 AM,17.6,14.0,86,30.24,4.0,North,9.2,-,0.00,Snow,Light Snow,10,2013-12-06 11:43:00
5:48 AM,17.6,15.8,93,30.25,4.0,NNE,9.2,-,0.00,Snow,Light Snow,20,2013-12-06 11:48:00
5:52 AM,17.6,15.8,93,30.25,2.5,North,6.9,-,0.00,Snow,Light Snow,10,2013-12-06 11:52:00
5:57 AM,17.6,15.8,93,30.25,1.5,NNE,11.5,-,0.00,Snow,Light Snow,20,2013-12-06 11:57:00
5:59 AM,17.6,15.8,93,30.25,1.5,NNE,8.1,-,0.00,Snow,Light Snow,20,2013-12-06 11:59:00
6:17 AM,17.6,15.8,93,30.24,2.0,NNE,11.5,-,0.00,Snow,Light Snow,20,2013-12-06 12:17:00
6:27 AM,17.6,15.8,93,30.25,1.8,NNE,9.2,-,0.00,Snow,Light Snow,30,2013-12-06 12:27:00
6:33 AM,17.6,15.8,93,30.24,2.0,NNE,10.4,-,0.00,Snow,Light Snow,30,2013-12-06 12:33:00
6:40 AM,17.1,15.1,92,30.31,2.0,NNE,10.4,-,0.00,Snow,Light Snow,20,2013-12-06 12:40:00
6:50 AM,17.6,15.8,93,30.26,1.8,NNE,5.8,-,0.00,Snow,Light Snow,20,2013-12-06 12:50:00
6:57 AM,17.1,15.1,92,30.32,1.8,North,10.4,-,0.00,Snow,Light Snow,10,2013-12-06 12:57:00
7:02 AM,17.6,15.8,93,30.26,2.5,NNE,6.9,-,0.00,Snow,Light Snow,20,2013-12-06 13:02:00
7:08 AM,17.6,14.0,86,30.26,3.0,NNE,13.8,-,0.00,Snow,Light Snow,20,2013-12-06 13:08:00
7:25 AM,17.6,14.0,86,30.26,2.0,NNE,11.5,-,0.00,Snow,Light Snow,20,2013-12-06 13:25:00
7:29 AM,17.6,14.0,86,30.27,1.8,NNE,11.5,-,0.00,Snow,Light Snow,20,2013-12-06 13:29:00
7:57 AM,17.6,14.0,86,30.28,1.0,NNE,10.4,-,0.00,Snow,Light Snow,20,2013-12-06 13:57:00
7:59 AM,17.1,14.0,88,30.35,1.0,North,10.4,16.1,0.00,Snow,Light Snow,10,2013-12-06 13:59:00
8:04 AM,17.6,14.0,86,30.30,0.8,North,8.1,16.1,0.00,Snow,Light Snow,10,2013-12-06 14:04:00
8:18 AM,17.6,14.0,86,30.28,0.8,NNE,9.2,-,0.00,Snow,Light Snow,20,2013-12-06 14:18:00
8:29 AM,17.6,14.0,86,30.28,0.5,NNE,11.5,16.1,0.00,Fog-Snow,Snow,20,2013-12-06 14:29:00
8:38 AM,17.6,14.0,86,30.28,0.5,NNE,11.5,17.3,0.00,Fog-Snow,Snow,20,2013-12-06 14:38:00
8:57 AM,17.1,14.0,88,30.35,0.5,NNE,11.5,19.6,0.00,Fog-Snow,Snow,20,2013-12-06 14:57:00
9:19 AM,17.6,14.0,86,30.29,0.8,NNE,12.7,-,0.00,Snow,Light Snow,30,2013-12-06 15:19:00
9:39 AM,17.6,14.0,86,30.33,0.8,NNE,6.9,-,0.00,Snow,Light Snow,20,2013-12-06 15:39:00
9:43 AM,17.6,15.8,93,30.33,0.5,NNE,4.6,-,0.00,Fog-Snow,Snow,20,2013-12-06 15:43:00
9:57 AM,17.1,15.1,92,30.38,0.5,NNE,8.1,-,0.00,Fog-Snow,Light Snow,20,2013-12-06 15:57:00
10:03 AM,17.6,14.0,86,30.34,0.8,NNE,9.2,-,0.00,Snow,Light Snow,20,2013-12-06 16:03:00
10:40 AM,17.6,15.8,93,30.35,0.5,NNE,4.6,-,0.00,Fog-Snow,Snow,20,2013-12-06 16:40:00
10:47 AM,17.6,15.8,93,30.34,0.5,North,4.6,-,0.00,Fog-Snow,Light Snow,360,2013-12-06 16:47:00
10:50 AM,17.6,15.8,93,30.34,0.8,North,3.5,-,0.00,Snow,Light Snow,10,2013-12-06 16:50:00
10:54 AM,17.6,15.8,93,30.34,1.0,North,6.9,-,0.00,Snow,Light Snow,10,2013-12-06 16:54:00
10:57 AM,18.0,15.1,88,30.39,1.0,North,6.9,-,0.00,Snow,Light Snow,10,2013-12-06 16:57:00
11:05 AM,17.6,15.8,93,30.34,0.8,North,5.8,-,0.00,Snow,Light Snow,10,2013-12-06 17:05:00
11:18 AM,17.6,15.8,93,30.36,0.5,North,6.9,-,0.00,Fog-Snow,Light Snow,350,2013-12-06 17:18:00
11:30 AM,17.6,15.8,93,30.30,0.8,NNE,10.4,-,0.00,Snow,Light Snow,20,2013-12-06 17:30:00
11:43 AM,17.6,14.0,86,30.35,1.0,North,6.9,-,0.00,Snow,Light Snow,10,2013-12-06 17:43:00
11:52 AM,17.6,15.8,93,30.35,0.8,North,9.2,-,0.00,Snow,Light Snow,350,2013-12-06 17:52:00
11:57 AM,17.6,15.8,93,30.36,0.8,North,-9999.0,-,0.00,Snow,Light Snow,0,2013-12-06 17:57:00
11:59 AM,17.6,15.8,93,30.35,1.0,North,-9999.0,-,0.00,Snow,Light Snow,0,2013-12-06 17:59:00
12:05 PM,18.0,15.1,88,30.40,1.0,North,-9999.0,-,0.00,Snow,Light Snow,0,2013-12-06 18:05:00
12:08 PM,17.6,15.8,93,30.33,0.8,North,-9999.0,-,0.00,Snow,Light Snow,0,2013-12-06 18:08:00
12:14 PM,17.6,15.8,93,30.33,0.8,North,-9999.0,-,0.00,Snow,Light Snow,0,2013-12-06 18:14:00
12:22 PM,17.6,14.0,86,30.33,0.8,North,-9999.0,-,0.00,Snow,Light Snow,0,2013-12-06 18:22:00
12:28 PM,17.6,14.0,86,30.32,1.0,North,-9999.0,-,0.00,Snow,Light Snow,0,2013-12-06 18:28:00
12:31 PM,17.6,14.0,86,30.34,1.2,North,-9999.0,-,0.00,Snow,Light Snow,0,2013-12-06 18:31:00
12:35 PM,17.6,15.8,93,30.34,1.5,North,-9999.0,-,0.00,Snow,Light Snow,0,2013-12-06 18:35:00
12:40 PM,17.6,15.8,93,30.33,2.0,North,-9999.0,-,0.00,Snow,Light Snow,0,2013-12-06 18:40:00
12:44 PM,17.6,14.0,86,30.33,2.5,North,-9999.0,-,0.00,Snow,Light Snow,0,2013-12-06 18:44:00
12:50 PM,17.6,15.8,93,30.32,2.5,North,-9999.0,-,0.00,Snow,Light Snow,0,2013-12-06 18:50:00
12:57 PM,17.6,14.0,86,30.32,2.5,North,-9999.0,-,0.00,Snow,Light Snow,0,2013-12-06 18:57:00
12:59 PM,18.0,14.0,84,30.38,2.5,North,-9999.0,-,0.00,Snow,Light Snow,0,2013-12-06 18:59:00
1:04 PM,19.4,14.0,80,30.33,3.0,North,-9999.0,-,0.00,Snow,Light Snow,0,2013-12-06 19:04:00
1:08 PM,19.4,14.0,80,30.33,3.0,North,-9999.0,-,0.00,Snow,Light Snow,0,2013-12-06 19:08:00
1:12 PM,19.4,14.0,80,30.33,2.5,North,-9999.0,-,0.00,Snow,Light Snow,0,2013-12-06 19:12:00
1:23 PM,19.4,14.0,80,30.32,3.0,North,-9999.0,-,0.00,Snow,Light Snow,0,2013-12-06 19:23:00
1:51 PM,19.4,14.0,80,30.33,7.0,North,-9999.0,-,0.00,Snow,Light Snow,0,2013-12-06 19:51:00
1:57 PM,19.0,14.0,81,30.38,9.0,North,-9999.0,-,0.00,Snow,Light Snow,0,2013-12-06 19:57:00
2:57 PM,19.0,14.0,81,30.40,5.0,North,-9999.0,-,0.00,Snow,Light Snow,0,2013-12-06 20:57:00
3:29 PM,19.4,15.8,86,30.35,2.5,North,-9999.0,-,0.00,Snow,Light Snow,0,2013-12-06 21:29:00
3:34 PM,19.4,14.0,80,30.35,3.0,North,9.2,-,0.00,Snow,Light Snow,350,2013-12-06 21:34:00
3:57 PM,17.6,14.0,86,30.36,6.0,North,8.1,-,0.00,Snow,Light Snow,360,2013-12-06 21:57:00
3:59 PM,18.0,14.0,84,30.43,6.0,North,8.1,-,0.00,Snow,Light Snow,360,2013-12-06 21:59:00
4:25 PM,17.6,12.2,79,30.38,7.0,North,6.9,-,0.00,Snow,Light Snow,350,2013-12-06 22:25:00
4:57 PM,18.0,12.0,78,30.46,9.0,North,8.1,-,0.00,Snow,Light Snow,10,2013-12-06 22:57:00
5:57 PM,17.1,10.0,74,30.49,10.0,North,6.9,-,0.00,,Overcast,360,2013-12-06 23:57:00
6:57 PM,17.1,8.1,68,30.52,10.0,North,10.4,16.1,N/A,,Overcast,360,2013-12-07 00:57:00
7:57 PM,17.1,8.1,68,30.53,10.0,NNE,5.8,-,N/A,,Overcast,20,2013-12-07 01:57:00
8:57 PM,16.0,7.0,68,30.55,10.0,NNE,8.1,-,N/A,,Overcast,20,2013-12-07 02:57:00
9:57 PM,16.0,7.0,68,30.57,10.0,NNE,8.1,-,N/A,,Overcast,20,2013-12-07 03:57:00
10:57 PM,15.1,7.0,70,30.59,10.0,NNE,5.8,-,N/A,,Overcast,30,2013-12-07 04:57:00
11:57 PM,14.0,6.1,71,30.58,10.0,NNE,9.2,-,N/A,,Scattered Clouds,20,2013-12-07 05:57:00